Time,TemperatureF,DewpointF,PressureIn,WindDirection,WindDirectionDegrees,WindSpeedMPH,WindSpeedGustMPH,Humidity,HourlyPrecipIn,Conditions,Clouds,dailyrainin,SolarRadiationWatts/m^2,SoftwareType,DateUTC
2013-01-01 00:02:00,56.0,53.0,-100.00,South,190,3.0,7.0,90,0.00,,,0.00,0.000000,,2013-01-01 06:02:00,
2013-01-01 00:33:00,57.0,54.0,-100.00,SSW,192,3.0,7.0,91,-99.99,,,-99.99,0.000000,,2013-01-01 06:33:00,
2013-01-01 00:43:00,57.0,54.0,-100.00,SSW,192,3.0,7.0,91,-99.99,,,-99.99,0.000000,,2013-01-01 06:43:00,
2013-01-01 00:52:00,57.0,54.0,-100.00,SSW,192,3.0,7.0,91,-99.99,,,-99.99,0.000000,,2013-01-01 06:52:00,
2013-01-01 01:02:00,57.0,54.0,-100.00,SSW,192,3.0,7.0,91,-99.99,,,-99.99,0.000000,,2013-01-01 07:02:00,
2013-01-01 01:32:00,57.0,56.0,-100.00,SSW,195,3.0,7.0,95,0.00,,,-99.99,0.000000,,2013-01-01 07:32:00,
2013-01-01 01:42:00,57.0,56.0,-100.00,SSW,195,3.0,7.0,95,0.00,,,-99.99,0.000000,,2013-01-01 07:42:00,
2013-01-01 01:52:00,57.0,56.0,-100.00,SSW,195,3.0,7.0,95,0.00,,,-99.99,0.000000,,2013-01-01 07:52:00,
2013-01-01 02:02:00,57.0,56.0,-100.00,SSW,195,3.0,7.0,95,0.00,,,-99.99,0.000000,,2013-01-01 08:02:00,
2013-01-01 02:32:00,58.0,57.0,-100.00,SSW,202,3.0,8.0,97,0.00,,,-99.99,0.000000,,2013-01-01 08:32:00,
2013-01-01 02:42:00,58.0,57.0,-100.00,SSW,202,3.0,8.0,97,0.00,,,-99.99,0.000000,,2013-01-01 08:42:00,
2013-01-01 02:53:00,58.0,57.0,-100.00,SSW,202,3.0,8.0,97,0.00,,,-99.99,0.000000,,2013-01-01 08:53:00,
2013-01-01 03:02:00,58.0,57.0,-100.00,SSW,202,3.0,8.0,97,0.00,,,-99.99,0.000000,,2013-01-01 09:02:00,
2013-01-01 03:32:00,58.0,57.0,-100.00,SSW,201,4.0,7.0,97,0.00,,,-99.99,0.000000,,2013-01-01 09:32:00,
2013-01-01 03:42:00,58.0,57.0,-100.00,SSW,201,4.0,7.0,97,0.00,,,-99.99,0.000000,,2013-01-01 09:42:00,
2013-01-01 03:52:00,58.0,57.0,-100.00,SSW,201,4.0,7.0,97,0.00,,,-99.99,0.000000,,2013-01-01 09:52:00,
2013-01-01 04:02:00,58.0,57.0,-100.00,SSW,201,4.0,7.0,97,0.00,,,-99.99,0.000000,,2013-01-01 10:02:00,
2013-01-01 04:33:00,59.0,58.0,-100.00,SSW,198,4.0,8.0,97,0.00,,,-99.99,0.000000,,2013-01-01 10:33:00,
2013-01-01 04:43:00,59.0,58.0,-100.00,SSW,198,4.0,8.0,97,0.00,,,-99.99,0.000000,,2013-01-01 10:43:00,
2013-01-01 04:53:00,59.0,58.0,-100.00,SSW,198,4.0,8.0,97,0.00,,,-99.99,0.000000,,2013-01-01 10:53:00,
2013-01-01 05:02:00,59.0,58.0,-100.00,SSW,198,4.0,8.0,97,0.00,,,-99.99,0.000000,,2013-01-01 11:02:00,
2013-01-01 05:33:00,60.0,59.0,-100.00,SSW,205,4.0,9.0,96,0.00,,,-99.99,0.000000,,2013-01-01 11:33:00,
2013-01-01 05:43:00,60.0,59.0,-100.00,SSW,205,4.0,9.0,96,0.00,,,-99.99,0.000000,,2013-01-01 11:43:00,
2013-01-01 05:53:00,60.0,59.0,-100.00,SSW,205,4.0,9.0,96,0.00,,,-99.99,0.000000,,2013-01-01 11:53:00,
2013-01-01 06:02:00,60.0,59.0,-100.00,SSW,205,4.0,9.0,96,0.00,,,-99.99,0.000000,,2013-01-01 12:02:00,
2013-01-01 06:33:00,60.0,59.0,-100.00,SSW,199,4.0,8.0,97,0.00,,,-99.99,0.000000,,2013-01-01 12:33:00,
2013-01-01 06:43:00,60.0,59.0,-100.00,SSW,199,4.0,8.0,97,0.00,,,-99.99,0.000000,,2013-01-01 12:43:00,
2013-01-01 06:53:00,60.0,59.0,-100.00,SSW,199,4.0,8.0,97,0.00,,,-99.99,0.000000,,2013-01-01 12:53:00,
2013-01-01 07:02:00,60.0,59.0,-100.00,SSW,199,4.0,8.0,97,0.00,,,-99.99,0.000000,,2013-01-01 13:02:00,
2013-01-01 07:33:00,60.0,59.0,-100.00,SSW,196,3.0,6.0,97,0.00,,,-99.99,2.000000,,2013-01-01 13:33:00,
2013-01-01 07:43:00,60.0,59.0,-100.00,SSW,196,3.0,6.0,97,0.00,,,-99.99,2.000000,,2013-01-01 13:43:00,
2013-01-01 07:53:00,60.0,59.0,-100.00,SSW,196,3.0,6.0,97,0.00,,,-99.99,2.000000,,2013-01-01 13:53:00,
2013-01-01 08:02:00,60.0,59.0,-100.00,SSW,196,3.0,6.0,97,0.00,,,-99.99,2.000000,,2013-01-01 14:02:00,
2013-01-01 08:33:00,62.0,61.0,-100.00,SSW,199,4.0,7.0,95,0.00,,,-99.99,39.000000,,2013-01-01 14:33:00,
2013-01-01 08:43:00,62.0,61.0,-100.00,SSW,199,4.0,7.0,95,0.00,,,-99.99,39.000000,,2013-01-01 14:43:00,
2013-01-01 08:53:00,62.0,61.0,-100.00,SSW,199,4.0,7.0,95,0.00,,,-99.99,39.000000,,2013-01-01 14:53:00,
2013-01-01 09:03:00,62.0,61.0,-100.00,SSW,199,4.0,7.0,95,0.00,,,-99.99,39.000000,,2013-01-01 15:03:00,
2013-01-01 09:33:00,63.0,61.0,-100.00,SW,236,4.0,8.0,93,0.00,,,-99.99,40.000000,,2013-01-01 15:33:00,
2013-01-01 09:43:00,63.0,61.0,-100.00,SW,236,4.0,8.0,93,0.00,,,-99.99,40.000000,,2013-01-01 15:43:00,
2013-01-01 09:53:00,63.0,61.0,-100.00,SW,236,4.0,8.0,93,0.00,,,-99.99,40.000000,,2013-01-01 15:53:00,
2013-01-01 10:02:00,63.0,61.0,-100.00,SW,236,4.0,8.0,93,0.00,,,-99.99,40.000000,,2013-01-01 16:02:00,
2013-01-01 10:33:00,64.0,62.0,-100.00,North,358,0.0,5.0,93,0.00,,,-99.99,27.000000,,2013-01-01 16:33:00,
2013-01-01 10:43:00,64.0,62.0,-100.00,North,358,0.0,5.0,93,0.00,,,-99.99,27.000000,,2013-01-01 16:43:00,
2013-01-01 10:53:00,64.0,62.0,-100.00,North,358,0.0,5.0,93,0.00,,,-99.99,27.000000,,2013-01-01 16:53:00,
2013-01-01 11:02:00,64.0,62.0,-100.00,North,358,0.0,5.0,93,0.00,,,-99.99,27.000000,,2013-01-01 17:02:00,
2013-01-01 11:33:00,63.0,61.0,-100.00,NNW,327,2.0,4.0,94,0.00,,,-99.99,45.000000,,2013-01-01 17:33:00,
2013-01-01 11:43:00,63.0,61.0,-100.00,NNW,327,2.0,4.0,94,0.00,,,-99.99,45.000000,,2013-01-01 17:43:00,
2013-01-01 11:53:00,63.0,61.0,-100.00,NNW,327,2.0,4.0,94,0.00,,,-99.99,45.000000,,2013-01-01 17:53:00,
2013-01-01 12:03:00,63.0,61.0,-100.00,NNW,327,2.0,4.0,94,0.00,,,-99.99,45.000000,,2013-01-01 18:03:00,
2013-01-01 12:33:00,61.0,60.0,-100.00,NNW,341,3.0,8.0,96,0.07,,,-99.99,14.000000,,2013-01-01 18:33:00,
2013-01-01 12:43:00,61.0,60.0,-100.00,NNW,341,3.0,8.0,96,0.07,,,-99.99,14.000000,,2013-01-01 18:43:00,
2013-01-01 12:53:00,61.0,60.0,-100.00,NNW,341,3.0,8.0,96,0.07,,,-99.99,14.000000,,2013-01-01 18:53:00,
2013-01-01 13:02:00,61.0,60.0,-100.00,NNW,341,3.0,8.0,96,0.07,,,-99.99,14.000000,,2013-01-01 19:02:00,
2013-01-01 13:33:00,63.0,62.0,-100.00,SSE,156,1.0,4.0,98,0.25,,,-99.99,83.000000,,2013-01-01 19:33:00,
2013-01-01 13:43:00,63.0,62.0,-100.00,SSE,156,1.0,4.0,98,0.25,,,-99.99,83.000000,,2013-01-01 19:43:00,
2013-01-01 13:53:00,63.0,62.0,-100.00,SSE,156,1.0,4.0,98,0.25,,,-99.99,83.000000,,2013-01-01 19:53:00,
2013-01-01 14:02:00,63.0,62.0,-100.00,SSE,156,1.0,4.0,98,0.25,,,-99.99,83.000000,,2013-01-01 20:02:00,
2013-01-01 14:32:00,62.0,61.0,-100.00,SSE,164,0.0,4.0,98,0.01,,,-99.99,54.000000,,2013-01-01 20:32:00,
2013-01-01 14:42:00,62.0,61.0,-100.00,SSE,164,0.0,4.0,98,0.01,,,-99.99,54.000000,,2013-01-01 20:42:00,
2013-01-01 14:53:00,62.0,61.0,-100.00,SSE,164,0.0,4.0,98,0.01,,,-99.99,54.000000,,2013-01-01 20:53:00,
2013-01-01 15:03:00,62.0,61.0,-100.00,SSE,164,0.0,4.0,98,0.01,,,-99.99,54.000000,,2013-01-01 21:03:00,
2013-01-01 15:33:00,63.0,63.0,-100.00,South,189,0.0,2.0,99,0.09,,,-99.99,25.000000,,2013-01-01 21:33:00,
2013-01-01 15:43:00,63.0,63.0,-100.00,South,189,0.0,2.0,99,0.09,,,-99.99,25.000000,,2013-01-01 21:43:00,
2013-01-01 15:53:00,63.0,63.0,-100.00,South,189,0.0,2.0,99,0.09,,,-99.99,25.000000,,2013-01-01 21:53:00,
2013-01-01 16:02:00,63.0,63.0,-100.00,South,189,0.0,2.0,99,0.09,,,-99.99,25.000000,,2013-01-01 22:02:00,
2013-01-01 16:33:00,57.0,56.0,-100.00,North,352,6.0,16.0,97,0.18,,,-99.99,12.000000,,2013-01-01 22:33:00,
2013-01-01 16:43:00,57.0,56.0,-100.00,North,352,6.0,16.0,97,0.18,,,-99.99,12.000000,,2013-01-01 22:43:00,
2013-01-01 16:52:00,57.0,56.0,-100.00,North,352,6.0,16.0,97,0.18,,,-99.99,12.000000,,2013-01-01 22:52:00,
2013-01-01 17:02:00,57.0,56.0,-100.00,North,352,6.0,16.0,97,0.18,,,-99.99,12.000000,,2013-01-01 23:02:00,
2013-01-01 17:33:00,54.0,53.0,-100.00,North,356,6.0,17.0,97,0.03,,,-99.99,7.000000,,2013-01-01 23:33:00,
2013-01-01 17:42:00,54.0,53.0,-100.00,North,356,6.0,17.0,97,0.03,,,-99.99,7.000000,,2013-01-01 23:42:00,
2013-01-01 17:53:00,54.0,53.0,-100.00,North,356,6.0,17.0,97,0.03,,,-99.99,7.000000,,2013-01-01 23:53:00,
2013-01-01 18:02:00,54.0,53.0,-100.00,North,356,6.0,17.0,97,0.03,,,-99.99,7.000000,,2013-01-02 00:02:00,
2013-01-01 18:33:00,52.0,51.0,-100.00,North,3,6.0,13.0,97,0.01,,,-99.99,0.000000,,2013-01-02 00:33:00,
2013-01-01 18:43:00,52.0,51.0,-100.00,North,3,6.0,13.0,97,0.01,,,-99.99,0.000000,,2013-01-02 00:43:00,
2013-01-01 18:53:00,52.0,51.0,-100.00,North,3,6.0,13.0,97,0.01,,,-99.99,0.000000,,2013-01-02 00:53:00,
2013-01-01 19:02:00,52.0,51.0,-100.00,North,3,6.0,13.0,97,0.01,,,-99.99,0.000000,,2013-01-02 01:02:00,
2013-01-01 19:33:00,51.0,50.0,-100.00,North,359,5.0,14.0,98,0.04,,,-99.99,0.000000,,2013-01-02 01:33:00,
2013-01-01 19:42:00,51.0,50.0,-100.00,North,359,5.0,14.0,98,0.04,,,-99.99,0.000000,,2013-01-02 01:42:00,
2013-01-01 19:52:00,51.0,50.0,-100.00,North,359,5.0,14.0,98,0.04,,,-99.99,0.000000,,2013-01-02 01:52:00,
2013-01-01 20:02:00,51.0,50.0,-100.00,North,359,5.0,14.0,98,0.04,,,-99.99,0.000000,,2013-01-02 02:02:00,
2013-01-01 20:32:00,50.0,49.0,-100.00,NE,40,5.0,13.0,98,0.04,,,-99.99,0.000000,,2013-01-02 02:32:00,
2013-01-01 20:43:00,50.0,49.0,-100.00,NE,40,5.0,13.0,98,0.04,,,-99.99,0.000000,,2013-01-02 02:43:00,
2013-01-01 20:53:00,50.0,49.0,-100.00,NE,40,5.0,13.0,98,0.04,,,-99.99,0.000000,,2013-01-02 02:53:00,
2013-01-01 21:02:00,50.0,49.0,-100.00,NE,40,5.0,13.0,98,0.04,,,-99.99,0.000000,,2013-01-02 03:02:00,
2013-01-01 21:32:00,50.0,50.0,-100.00,North,357,3.0,7.0,99,0.04,,,-99.99,0.000000,,2013-01-02 03:32:00,
2013-01-01 21:42:00,50.0,50.0,-100.00,North,357,3.0,7.0,99,0.04,,,-99.99,0.000000,,2013-01-02 03:42:00,
2013-01-01 21:53:00,50.0,50.0,-100.00,North,357,3.0,7.0,99,0.04,,,-99.99,0.000000,,2013-01-02 03:53:00,
2013-01-01 22:02:00,50.0,50.0,-100.00,North,357,3.0,7.0,99,0.04,,,-99.99,0.000000,,2013-01-02 04:02:00,
2013-01-01 22:32:00,49.0,49.0,-100.00,North,351,5.0,9.0,99,0.01,,,-99.99,0.000000,,2013-01-02 04:32:00,
2013-01-01 22:42:00,49.0,49.0,-100.00,North,351,5.0,9.0,99,0.01,,,-99.99,0.000000,,2013-01-02 04:42:00,
2013-01-01 22:52:00,49.0,49.0,-100.00,North,351,5.0,9.0,99,0.01,,,-99.99,0.000000,,2013-01-02 04:52:00,
2013-01-01 23:03:00,49.0,49.0,-100.00,North,351,5.0,9.0,99,0.01,,,-99.99,0.000000,,2013-01-02 05:03:00,
2013-01-01 23:33:00,46.0,46.0,-100.00,North,1,6.0,13.0,99,0.01,,,-99.99,0.000000,,2013-01-02 05:33:00,
2013-01-01 23:43:00,46.0,46.0,-100.00,North,1,6.0,13.0,99,0.01,,,-99.99,0.000000,,2013-01-02 05:43:00,
2013-01-01 23:53:00,46.0,46.0,-100.00,North,1,6.0,13.0,99,0.01,,,-99.99,0.000000,,2013-01-02 05:53:00,